Total_Precipitation_Accumulation
0.70 0.72 0.71 0.61 0.49 0.47 0.47 0.45 0.44 0.47 0.53 0.54 0.56 0.61 0.59 0.59 0.60 0.60 0.64 0.70 0.76 0.84 0.86 0.93 1.11 1.26 1.28 1.28 1.30 1.29 1.24 1.07 0.86 0.80 0.60 0.54 0.57 0.50 0.49 0.45 0.45 0.47 0.39
0.65 0.62 0.58 0.51 0.44 0.43 0.41 0.38 0.39 0.44 0.46 0.46 0.51 0.54 0.54 0.58 0.61 0.59 0.56 0.56 0.62 0.71 0.72 0.70 0.78 0.95 1.05 1.13 1.20 1.22 1.24 1.20 1.04 0.99 0.91 0.72 0.65 0.61 0.62 0.62 0.56 0.56 0.57
0.70 0.60 0.56 0.52 0.49 0.47 0.42 0.41 0.41 0.47 0.57 0.59 0.59 0.62 0.59 0.61 0.60 0.60 0.60 0.58 0.58 0.64 0.68 0.69 0.72 0.76 0.87 0.93 1.04 1.13 1.18 1.25 1.18 1.01 1.04 1.00 0.83 0.76 0.70 0.68 0.67 0.71 0.69
0.90 0.77 0.68 0.61 0.54 0.48 0.43 0.43 0.41 0.45 0.51 0.53 0.60 0.68 0.75 0.80 0.79 0.74 0.70 0.65 0.60 0.61 0.67 0.72 0.71 0.70 0.77 0.96 1.08 1.13 1.14 1.16 1.21 1.16 1.12 1.12 1.00 0.87 0.80 0.79 0.85 0.88 0.84
0.92 0.80 0.66 0.55 0.45 0.43 0.46 0.49 0.46 0.41 0.43 0.44 0.52 0.59 0.68 0.77 0.83 0.82 0.67 0.56 0.56 0.60 0.59 0.59 0.66 0.72 0.73 0.83 0.96 1.14 1.12 1.15 1.17 1.20 1.15 1.03 0.95 0.84 0.80 0.80 0.82 0.92 0.86
0.74 0.70 0.54 0.48 0.43 0.39 0.42 0.48 0.49 0.39 0.37 0.39 0.42 0.40 0.41 0.47 0.62 0.61 0.49 0.41 0.45 0.53 0.58 0.61 0.61 0.61 0.60 0.64 0.66 0.85 0.99 1.07 1.11 1.08 1.10 1.00 0.90 0.82 0.86 0.82 0.73 0.74 0.81
0.44 0.45 0.36 0.34 0.41 0.42 0.45 0.44 0.38 0.31 0.33 0.35 0.30 0.26 0.26 0.30 0.35 0.33 0.38 0.42 0.43 0.45 0.52 0.62 0.68 0.65 0.66 0.73 0.68 0.70 0.75 0.79 0.86 0.90 0.93 0.90 0.86 0.79 0.81 0.81 0.74 0.68 0.61
0.20 0.17 0.14 0.21 0.30 0.32 0.30 0.28 0.23 0.22 0.28 0.35 0.30 0.27 0.29 0.26 0.29 0.33 0.36 0.39 0.49 0.53 0.54 0.55 0.66 0.70 0.73 0.85 0.84 0.88 0.79 0.70 0.69 0.70 0.79 0.78 0.71 0.76 0.79 0.90 0.87 0.70 0.58
0.02 0.02 0.04 0.05 0.06 0.06 0.06 0.07 0.11 0.15 0.19 0.18 0.22 0.36 0.36 0.32 0.39 0.37 0.31 0.36 0.46 0.51 0.50 0.55 0.64 0.73 0.87 0.96 1.00 0.96 0.84 0.72 0.74 0.82 0.86 0.84 0.80 0.82 0.83 0.83 0.81 0.72 0.64
0.00 0.00 0.00 0.01 0.01 0.01 0.01 0.01 0.03 0.06 0.09 0.10 0.14 0.26 0.33 0.34 0.33 0.23 0.24 0.33 0.43 0.51 0.53 0.55 0.76 0.77 0.86 0.89 0.92 0.97 0.93 0.75 0.68 0.73 0.76 0.76 0.72 0.75 0.85 0.84 0.85 0.82 0.69
0.00 0.00 0.00 0.00 0.01 0.01 0.02 0.01 0.00 0.01 0.02 0.05 0.09 0.12 0.14 0.14 0.13 0.13 0.19 0.25 0.30 0.42 0.49 0.52 0.50 0.64 0.66 0.75 0.81 0.82 0.95 0.80 0.70 0.70 0.66 0.59 0.56 0.60 0.64 0.65 0.72 0.76 0.70
0.00 0.00 0.00 0.01 0.01 0.01 0.02 0.01 0.01 0.00 0.01 0.02 0.05 0.08 0.07 0.06 0.05 0.06 0.08 0.12 0.18 0.25 0.33 0.44 0.44 0.50 0.55 0.62 0.62 0.74 0.84 0.77 0.68 0.67 0.59 0.50 0.46 0.45 0.46 0.46 0.49 0.51 0.54
0.00 0.01 0.00 0.00 0.01 0.00 0.01 0.01 0.01 0.01 0.01 0.02 0.03 0.06 0.06 0.08 0.06 0.06 0.06 0.08 0.13 0.17 0.20 0.35 0.41 0.46 0.45 0.46 0.55 0.67 0.68 0.70 0.74 0.64 0.59 0.49 0.40 0.35 0.30 0.32 0.36 0.35 0.34
0.00 0.00 0.00 0.00 0.01 0.00 0.01 0.00 0.01 0.01 0.01 0.01 0.02 0.04 0.08 0.10 0.06 0.05 0.07 0.10 0.12 0.14 0.17 0.30 0.42 0.48 0.46 0.45 0.49 0.58 0.60 0.67 0.72 0.60 0.50 0.42 0.33 0.29 0.25 0.25 0.27 0.26 0.25
0.00 0.00 0.00 0.00 0.01 0.01 0.01 0.00 0.00 0.00 0.01 0.01 0.01 0.03 0.03 0.04 0.03 0.04 0.07 0.10 0.12 0.13 0.23 0.39 0.53 0.55 0.53 0.48 0.48 0.54 0.52 0.48 0.50 0.45 0.44 0.38 0.29 0.26 0.21 0.18 0.18 0.16 0.18
0.00 0.00 0.00 0.00 0.01 0.01 0.01 0.01 0.00 0.01 0.01 0.01 0.01 0.02 0.02 0.02 0.03 0.06 0.11 0.14 0.16 0.23 0.39 0.58 0.68 0.75 0.72 0.63 0.56 0.54 0.49 0.45 0.43 0.41 0.43 0.37 0.28 0.24 0.20 0.15 0.15 0.13 0.13
0.00 0.00 0.00 0.00 0.00 0.00 0.00 0.02 0.02 0.01 0.01 0.00 0.00 0.01 0.01 0.03 0.06 0.13 0.19 0.21 0.27 0.49 0.69 0.73 0.74 0.76 0.76 0.65 0.53 0.47 0.36 0.31 0.32 0.33 0.33 0.29 0.23 0.17 0.14 0.10 0.09 0.09 0.08
0.00 0.00 0.00 0.00 0.00 0.00 0.00 0.00 0.02 0.03 0.04 0.02 0.01 0.00 0.01 0.02 0.08 0.18 0.29 0.39 0.45 0.61 0.75 0.76 0.82 0.79 0.72 0.56 0.40 0.32 0.22 0.19 0.19 0.19 0.17 0.14 0.12 0.09 0.07 0.06 0.05 0.05 0.04
0.00 0.00 0.00 0.00 0.00 0.00 0.00 0.00 0.00 0.01 0.01 0.02 0.02 0.01 0.01 0.01 0.03 0.08 0.15 0.21 0.23 0.31 0.39 0.45 0.48 0.46 0.40 0.29 0.19 0.15 0.09 0.07 0.07 0.07 0.08 0.06 0.06 0.05 0.05 0.05 0.05 0.04 0.04
0.00 0.00 0.00 0.00 0.00 0.00 0.00 0.00 0.00 0.00 0.01 0.01 0.01 0.01 0.01 0.02 0.04 0.04 0.04 0.05 0.07 0.10 0.12 0.13 0.13 0.11 0.10 0.07 0.05 0.05 0.05 0.04 0.04 0.03 0.04 0.04 0.04 0.04 0.04 0.04 0.05 0.05 0.05
0.00 0.00 0.00 0.00 0.00 0.00 0.00 0.00 0.00 0.00 0.00 0.00 0.00 0.00 0.01 0.02 0.02 0.02 0.02 0.03 0.03 0.03 0.04 0.04 0.04 0.03 0.02 0.02 0.02 0.02 0.03 0.03 0.02 0.02 0.02 0.02 0.03 0.04 0.04 0.05 0.04 0.04 0.04
0.00 0.00 0.00 0.00 0.00 0.00 0.00 0.00 0.00 0.00 0.00 0.00 0.00 0.00 0.01 0.03 0.04 0.03 0.02 0.02 0.02 0.03 0.02 0.02 0.02 0.02 0.02 0.01 0.01 0.01 0.01 0.01 0.01 0.01 0.02 0.02 0.03 0.03 0.03 0.03 0.04 0.04 0.04
0.00 0.00 0.00 0.00 0.00 0.00 0.00 0.00 0.00 0.00 0.00 0.00 0.00 0.00 0.01 0.02 0.02 0.02 0.02 0.02 0.02 0.02 0.01 0.01 0.01 0.01 0.01 0.01 0.00 0.01 0.00 0.01 0.01 0.01 0.02 0.03 0.03 0.04 0.04 0.04 0.04 0.04 0.04
0.00 0.00 0.00 0.00 0.00 0.00 0.00 0.00 0.00 0.00 0.00 0.00 0.00 0.01 0.00 0.01 0.01 0.01 0.01 0.01 0.01 0.01 0.00 0.00 0.00 0.00 0.00 0.00 0.00 0.00 0.00 0.00 0.01 0.02 0.03 0.04 0.04 0.06 0.08 0.08 0.06 0.07 0.10
0.00 0.00 0.00 0.00 0.00 0.00 0.00 0.00 0.00 0.00 0.00 0.00 0.00 0.01 0.01 0.01 0.01 0.01 0.00 0.00 0.00 0.00 0.00 0.00 0.00 0.00 0.00 0.00 0.00 0.00 0.01 0.01 0.01 0.01 0.02 0.02 0.03 0.05 0.07 0.06 0.07 0.07 0.07
0.00 0.00 0.00 0.00 0.00 0.00 0.00 0.00 0.00 0.00 0.00 0.00 0.00 0.01 0.01 0.01 0.01 0.00 0.00 0.00 0.00 0.00 0.00 0.00 0.00 0.00 0.00 0.00 0.00 0.01 0.01 0.01 0.01 0.01 0.01 0.01 0.03 0.04 0.04 0.03 0.03 0.02 0.02